Temperature
15 15 15 15 15 15 15 14 14 14 14 14 14 14 14 14 14 14 14 13 13 13 13 13 13 13 13 13 13 13 13 13 13 13 13 13 13 13 13 13 13 13 13
15 15 14 14 14 14 14 14 14 14 14 14 14 13 13 13 13 13 13 13 13 13 13 13 13 13 13 13 13 13 13 13 13 13 13 13 13 13 13 13 13 12 12
14 14 14 14 14 14 14 14 14 14 14 13 13 13 13 13 13 13 13 13 13 13 13 13 13 13 13 13 13 13 13 13 13 13 13 13 13 13 13 13 12 12 12
14 14 14 14 14 13 14 13 13 13 13 13 13 13 13 13 13 13 13 13 13 13 13 13 13 13 13 13 13 13 13 13 13 12 12 13 13 12 12 12 12 12 12
14 14 14 14 13 13 13 13 13 13 13 13 13 13 13 13 13 13 13 13 13 13 13 13 13 13 13 13 13 13 13 13 13 12 12 12 12 12 12 12 12 12 12
14 14 13 13 13 13 13 13 13 13 13 13 13 13 13 13 13 13 13 13 13 13 13 13 13 12 12 12 12 12 12 12 12 12 12 12 12 12 12 12 12 12 11
13 13 13 13 13 13 13 13 13 13 13 13 13 12 12 13 13 13 13 13 13 13 13 12 12 12 12 12 12 12 12 12 12 12 12 12 12 12 12 12 12 11 11
13 13 13 13 13 13 13 13 13 12 12 12 12 12 12 12 12 13 13 12 13 13 12 12 12 12 12 12 12 12 12 12 12 12 12 12 12 12 12 12 12 11 11
13 13 13 13 12 12 12 12 12 12 12 12 12 12 12 12 12 12 12 12 12 12 12 12 12 12 12 12 12 12 12 12 12 12 12 12 11 11 11 11 11 11 11
13 13 13 12 12 12 12 12 12 12 12 12 12 12 12 12 12 12 12 12 12 12 12 12 12 12 12 12 12 12 12 12 12 12 12 12 11 11 11 11 11 11 11
13 12 12 12 12 12 12 12 12 12 12 12 12 12 12 12 12 12 11 11 11 11 11 12 12 11 11 12 12 11 12 12 12 12 12 11 11 11 11 11 11 11 11
12 12 12 12 12 12 12 12 11 11 11 11 11 11 11 11 11 11 11 11 11 11 11 11 11 11 11 11 11 11 11 11 11 11 11 11 11 11 11 11 11 10 10
12 12 12 12 12 12 11 11 11 11 11 11 11 11 11 11 11 11 11 11 11 11 11 11 11 11 11 11 11 11 11 11 11 11 11 11 11 11 11 11 10 10 10
12 12 12 11 11 11 11 11 11 11 11 11 11 11 11 11 11 11 11 11 11 11 11 11 11 11 11 11 11 11 11 11 11 11 11 11 10 10 10 10 10 10 10
12 11 11 11 11 11 11 11 11 11 11 11 11 11 11 11 11 11 11 11 11 10 10 10 10 10 11 10 10 11 11 11 11 10 10 10 10 10 10 10 10 10 10
11 11 11 11 11 11 11 11 11 11 11 11 11 11 11 11 11 11 11 11 11 11 10 10 10 10 10 10 10 10 10 10 10 10 10 10 10 10 10 10 9 9 9
11 11 11 11 11 11 11 11 11 11 11 11 11 11 11 11 11 11 11 11 11 10 10 10 10 10 10 10 10 10 10 10 10 10 10 10 10 10 9 9 9 9 9
11 10 11 11 11 11 11 11 11 11 11 11 11 11 11 11 11 11 11 10 11 10 10 10 10 10 10 10 10 10 10 10 10 10 9 9 9 9 9 9 9 9 9
10 10 10 10 10 11 10 10 10 11 11 11 11 11 11 11 11 10 10 10 10 10 10 10 10 10 10 10 10 9 9 9 9 9 9 9 9 9 9 9 9 9 8
10 10 10 10 10 10 10 10 10 10 10 10 10 10 10 10 10 10 10 10 10 10 10 10 10 10 10 9 9 9 9 9 9 9 9 9 9 9 9 9 8 8 8
10 10 10 10 10 10 10 10 10 10 10 10 10 10 10 10 10 10 10 10 10 10 10 9 9 9 9 9 9 9 9 9 9 9 9 9 8 8 8 8 8 8 8
10 10 10 10 10 10 10 10 10 10 10 10 10 10 10 10 10 10 10 10 10 9 9 9 9 9 9 9 9 9 8 8 8 8 8 8 8 8 8 8 8 7 7
9 10 10 10 10 10 10 10 10 10 10 10 10 10 10 10 10 9 9 9 9 9 9 9 9 9 8 8 8 8 8 8 8 8 8 8 8 8 8 7 7 7 7
9 9 9 9 9 9 9 9 10 10 10 10 10 10 9 9 9 9 9 9 9 9 9 9 8 8 8 8 8 8 8 8 8 8 8 7 7 7 7 7 7 7 7
9 9 9 9 9 9 9 9 9 9 9 9 9 9 9 9 9 9 9 9 9 8 8 8 8 8 8 8 8 8 8 8 8 8 8 7 7 7 7 7 7 7 6
8 9 9 9 9 9 9 9 9 9 9 9 9 9 9 9 9 9 8 8 8 8 8 8 8 8 8 8 8 8 8 8 8 8 7 7 7 7 7 6 6 6 6
Wind_Speed
2 2 2 2 1 1 1 1 1 1 1 1 2 2 2 2 2 2 2 1 2 2 2 3 3 3 2 2 2 2 2 2 3 2 1 1 0 1 0 1 1 2 2
2 3 2 2 1 1 0 1 1 1 2 1 2 2 2 2 2 2 2 2 2 2 3 3 3 3 3 3 3 3 3 3 3 2 2 1 1 1 0 0 1 1 1
2 2 2 1 1 1 1 1 1 1 2 2 2 2 2 2 2 2 2 2 2 3 3 4 4 4 4 3 3 3 3 3 2 2 2 1 0 0 1 1 0 0 0
2 2 1 0 1 2 1 1 2 2 2 2 2 3 3 3 3 3 3 2 3 3 3 4 4 4 5 4 4 4 4 3 3 2 2 1 1 0 1 1 0 0 1
2 2 1 1 1 1 1 2 2 2 2 3 2 3 3 2 3 3 3 3 3 3 2 3 3 4 5 5 4 5 5 4 3 3 2 1 1 1 2 2 1 1 1
2 2 1 0 0 1 1 1 2 2 2 2 2 3 3 3 4 4 3 2 2 3 3 2 3 3 4 5 6 6 7 6 6 4 3 3 3 3 2 2 2 1 2
2 1 1 1 1 1 2 2 2 3 3 3 3 2 3 4 5 4 4 3 2 2 3 2 2 2 3 3 3 4 5 6 8 6 6 6 5 5 4 4 3 3 3
2 2 1 1 1 1 1 2 3 3 3 3 3 3 3 4 5 4 3 2 2 2 3 3 3 2 2 2 3 2 3 4 6 6 6 6 5 5 6 5 4 2 2
3 2 2 2 2 1 2 2 3 3 3 3 3 3 3 5 5 4 2 1 2 2 2 2 2 3 3 3 3 3 2 2 2 5 5 5 6 6 5 3 3 3 2
4 4 3 2 2 2 3 3 2 2 3 3 3 3 3 4 5 4 2 1 2 2 2 2 2 2 2 3 3 3 3 3 2 1 1 2 2 4 6 6 5 4 2
4 3 2 2 3 3 2 2 2 2 2 2 3 3 3 4 4 3 2 2 2 2 2 2 2 2 2 3 3 4 5 4 2 2 2 1 1 1 2 3 4 4 4
3 3 3 3 3 2 1 1 1 1 1 2 3 3 3 3 3 3 3 2 3 2 3 3 3 2 2 2 2 3 4 3 2 2 1 1 1 1 1 1 2 2 3
3 3 3 3 2 2 2 2 1 1 1 2 2 3 4 3 3 3 3 3 3 2 3 3 3 2 1 1 2 2 3 3 2 2 2 2 2 2 1 0 1 1 1
4 4 3 3 2 2 2 2 2 2 2 2 3 3 3 3 3 2 2 2 3 2 2 2 2 1 0 0 0 1 2 2 3 3 2 2 1 1 1 0 0 0 0
4 3 3 3 3 3 3 3 4 4 5 4 4 3 3 4 4 3 2 2 2 2 1 1 1 1 1 1 1 0 1 1 2 2 2 2 1 1 1 0 1 1 1
4 3 3 3 3 3 3 3 4 5 6 7 7 6 5 6 6 4 4 4 3 2 1 1 1 1 1 1 1 1 1 2 2 2 2 2 2 2 1 1 1 1 1
4 4 3 3 3 3 3 3 3 4 3 4 5 5 6 5 4 4 3 2 1 2 1 2 2 2 2 2 2 2 2 2 2 2 2 2 2 2 2 2 1 1 1
3 4 4 4 3 4 4 4 4 3 3 3 3 4 4 3 3 2 1 1 1 0 2 3 3 2 2 2 2 2 2 2 1 2 2 2 2 2 2 2 2 2 2
3 2 2 3 3 3 3 3 3 3 3 3 3 3 2 1 1 0 2 1 1 2 2 3 3 3 2 2 2 2 2 2 2 2 2 2 2 2 2 2 2 2 2
2 3 3 2 2 2 3 3 3 3 3 3 3 3 2 1 1 1 1 2 2 2 2 3 3 3 2 2 2 2 2 2 2 2 2 2 2 2 3 3 2 2 2
2 2 3 2 2 2 2 3 3 3 3 3 3 3 3 2 2 2 2 2 2 2 2 2 2 2 1 1 1 2 2 2 3 3 3 3 3 3 3 3 3 2 2
1 2 2 2 2 2 3 3 3 3 4 4 3 2 3 2 2 2 2 2 2 2 2 2 1 1 1 1 1 2 2 2 2 2 3 2 2 2 2 3 3 3 2
1 1 1 1 2 2 3 3 3 3 3 3 3 2 2 2 2 2 2 2 1 1 1 1 1 1 1 1 2 2 3 3 3 3 3 3 2 2 3 3 3 3 3
1 1 2 2 1 2 3 3 3 3 3 3 3 3 3 3 3 3 2 1 1 1 1 1 1 1 2 1 1 2 2 3 3 3 4 4 3 3 3 3 3 3 3
1 1 1 1 2 2 3 3 3 3 3 3 3 3 3 3 3 2 2 2 1 1 1 1 1 1 2 2 2 2 2 1 2 2 3 3 3 3 3 3 3 3 3
1 2 2 2 2 2 3 3 3 3 3 3 3 3 3 3 3 3 2 2 2 1 1 1 1 1 2 2 2 2 2 1 1 2 3 3 3 3 3 3 3 3 3
Wind_Direction
109 102 93 82 94 124 130 271 277 288 310 314 295 289 286 290 287 268 264 250 218 216 212 206 216 207 201 205 201 196 198 192 223 273 290 319 252 249 44 182 206 204 197
130 109 99 88 74 70 332 302 307 314 314 300 302 304 303 304 292 271 265 256 237 231 227 216 224 213 207 208 200 202 203 199 197 237 280 304 274 246 201 162 179 162 178
124 114 101 76 52 315 302 305 306 302 307 308 297 292 293 292 286 272 258 249 243 241 229 220 225 211 214 211 203 206 205 196 193 202 250 274 290 182 94 74 47 22 208
127 124 112 165 260 273 299 311 308 299 293 292 284 279 282 286 284 274 259 253 253 252 242 230 226 217 217 210 208 205 194 182 180 189 228 241 234 250 156 186 266 299 286
144 145 175 229 267 301 320 320 325 317 299 289 293 299 298 290 285 268 253 252 252 259 257 240 232 227 222 213 209 197 189 191 189 197 213 197 210 199 206 206 215 265 292
159 181 191 165 289 304 302 321 330 323 312 307 301 295 299 299 300 283 256 251 249 248 258 257 250 237 233 224 213 203 194 195 200 201 209 212 221 214 201 203 202 224 268
176 193 199 226 259 285 310 335 318 313 320 315 303 295 293 298 297 285 268 251 251 250 249 251 258 262 233 228 213 203 206 207 203 200 206 215 211 205 194 207 213 218 239
183 200 208 219 251 288 308 299 300 303 301 297 302 298 298 310 314 300 278 268 266 262 253 242 242 265 257 220 204 210 220 222 218 215 219 222 219 210 204 208 211 219 258
197 211 212 209 224 257 282 289 291 294 297 298 302 309 304 307 315 312 287 279 280 285 280 265 239 244 245 200 191 207 228 246 232 216 220 221 214 205 190 176 185 198 250
215 219 212 206 211 237 256 273 288 292 292 301 307 304 296 299 309 312 294 267 280 290 299 295 273 258 240 196 199 201 218 240 231 220 219 219 214 200 193 200 200 204 224
215 208 206 213 219 233 250 270 291 307 320 314 307 307 300 295 302 308 297 256 260 269 280 288 286 269 237 214 207 217 223 221 216 201 207 218 217 210 214 214 209 208 214
196 199 212 222 229 237 227 271 288 290 310 311 317 321 314 304 296 294 292 273 264 256 266 271 271 257 233 219 216 223 202 186 190 181 195 226 236 245 246 238 215 215 226
189 202 217 228 235 226 215 233 269 266 267 282 294 304 312 314 307 295 286 281 281 263 271 273 273 263 235 237 238 207 181 181 182 190 215 237 243 241 246 12 68 97 78
194 208 218 221 236 237 226 223 235 246 250 260 270 284 297 305 309 313 302 279 277 275 289 302 300 281 95 21 10 209 205 197 194 204 220 231 219 184 165 181 191 91 67
203 212 220 219 220 231 237 234 236 240 228 230 246 250 263 283 284 274 266 265 259 261 293 324 354 12 5 348 348 237 197 181 188 197 191 198 199 192 208 222 189 169 168
204 213 218 221 221 225 240 278 269 249 245 236 235 236 246 249 269 262 259 263 266 232 176 243 256 238 232 238 242 236 216 211 206 196 195 201 204 201 206 215 203 184 192
204 214 218 219 220 223 227 239 276 297 273 246 245 243 241 254 256 252 256 259 215 163 189 247 248 244 241 241 236 226 230 231 213 203 203 205 203 199 194 197 199 205 218
203 215 220 224 222 225 229 233 238 251 281 295 287 270 264 259 253 244 199 114 43 229 248 255 260 258 252 247 238 233 228 214 206 209 212 211 200 193 195 207 212 222 224
202 215 221 226 226 226 230 235 242 245 253 271 293 300 292 280 317 160 145 170 223 250 257 257 259 259 256 246 235 222 215 213 210 206 213 217 210 200 208 220 223 214 220
218 227 220 219 227 227 227 234 244 245 249 255 265 274 275 267 286 276 218 222 231 246 255 262 264 260 257 251 232 213 208 212 207 211 218 220 218 209 209 214 219 222 226
226 233 228 224 228 231 235 239 238 236 241 248 258 257 220 221 237 244 245 242 243 251 259 261 261 259 255 253 236 224 217 220 219 220 224 223 220 221 221 220 223 224 228
224 233 230 228 234 239 242 244 241 236 239 245 260 260 216 214 224 237 247 256 256 254 253 248 250 259 253 243 232 225 229 234 229 226 223 220 213 215 220 220 216 212 215
234 244 247 251 244 244 247 247 243 243 241 240 240 235 224 226 232 237 244 255 255 257 247 229 250 288 291 275 256 231 227 232 234 230 221 219 217 214 213 215 216 210 214
243 246 253 260 258 261 263 262 255 245 239 242 240 234 229 229 234 240 242 244 255 257 245 233 246 277 289 286 272 261 252 247 234 224 218 215 215 214 212 216 221 218 219
261 258 262 267 271 271 271 268 265 259 248 241 241 240 232 225 226 230 231 233 238 243 250 255 265 279 292 294 296 292 288 262 242 234 226 216 211 210 210 214 216 215 217
274 273 266 267 277 282 272 266 271 270 258 247 239 233 229 226 225 223 221 222 226 229 241 256 276 283 294 299 312 323 315 296 272 244 221 213 217 219 214 217 218 217 217
Height
1501 1502 1503 1504 1505 1506 1506 1506 1506 1506 1506 1505 1505 1504 1503 1503 1502 1502 1501 1501 1501 1501 1502 1503 1504 1505 1506 1506 1507 1508 1509 1509 1509 1509 1509 1509 1509 1510 1510 1511 1511 1512 1512
1500 1501 1502 1503 1504 1505 1505 1505 1505 1505 1504 1504 1503 1502 1502 1501 1500 1500 1499 1499 1499 1499 1499 1500 1501 1502 1503 1503 1504 1505 1506 1507 1507 1506 1507 1507 1507 1508 1508 1509 1509 1510 1510
1500 1501 1502 1502 1503 1503 1503 1503 1503 1503 1503 1502 1502 1501 1500 1499 1499 1498 1498 1497 1497 1497 1497 1498 1498 1499 1500 1500 1501 1502 1503 1504 1504 1504 1504 1505 1505 1506 1506 1506 1507 1507 1508
1499 1500 1501 1501 1502 1502 1502 1502 1502 1501 1501 1500 1500 1499 1498 1498 1497 1497 1496 1495 1495 1495 1495 1495 1496 1496 1497 1498 1499 1499 1500 1501 1502 1502 1502 1502 1503 1503 1504 1504 1504 1505 1506
1498 1499 1499 1500 1501 1501 1500 1500 1500 1499 1499 1498 1498 1497 1497 1496 1495 1495 1494 1493 1493 1493 1492 1492 1493 1494 1494 1495 1496 1497 1498 1498 1499 1499 1499 1500 1500 1501 1501 1502 1502 1502 1503
1497 1498 1499 1499 1500 1499 1499 1498 1498 1497 1497 1497 1496 1495 1495 1494 1493 1493 1492 1492 1491 1490 1490 1490 1490 1491 1492 1492 1493 1494 1495 1496 1496 1496 1497 1497 1497 1498 1499 1500 1500 1500 1500
1495 1496 1497 1497 1498 1498 1497 1496 1496 1495 1495 1494 1494 1493 1492 1492 1491 1490 1490 1489 1489 1488 1488 1487 1488 1488 1489 1490 1491 1492 1492 1493 1494 1495 1494 1494 1495 1496 1496 1497 1497 1497 1498
1494 1494 1495 1495 1496 1496 1495 1495 1494 1493 1493 1492 1491 1491 1490 1489 1489 1488 1487 1487 1486 1485 1485 1485 1486 1486 1487 1487 1488 1488 1489 1490 1491 1492 1492 1492 1493 1494 1494 1494 1495 1495 1495
1491 1492 1493 1494 1494 1494 1493 1493 1492 1491 1490 1490 1489 1488 1488 1487 1487 1486 1485 1484 1483 1483 1483 1483 1483 1484 1485 1485 1485 1485 1486 1487 1488 1489 1490 1490 1490 1491 1491 1492 1492 1492 1492
1489 1490 1491 1491 1492 1491 1491 1491 1490 1489 1488 1487 1487 1486 1486 1485 1484 1484 1483 1482 1481 1481 1481 1481 1481 1482 1482 1483 1483 1483 1483 1484 1486 1486 1487 1487 1488 1488 1488 1488 1488 1489 1488
1487 1488 1489 1489 1489 1490 1489 1489 1489 1488 1486 1485 1485 1484 1483 1483 1482 1482 1481 1480 1480 1479 1479 1479 1479 1480 1480 1480 1480 1480 1481 1482 1483 1484 1484 1484 1485 1485 1485 1485 1485 1486 1486
1484 1485 1486 1487 1487 1487 1487 1487 1486 1486 1485 1484 1483 1482 1481 1480 1480 1480 1479 1479 1478 1478 1477 1477 1477 1478 1478 1478 1478 1478 1479 1479 1480 1481 1481 1481 1482 1482 1482 1482 1482 1482 1483
1481 1482 1484 1484 1485 1485 1485 1485 1484 1484 1483 1482 1481 1479 1479 1479 1478 1478 1477 1477 1477 1476 1475 1475 1475 1475 1475 1475 1475 1475 1476 1476 1477 1478 1478 1479 1479 1479 1479 1480 1480 1480 1480
1478 1479 1481 1482 1482 1483 1483 1483 1482 1481 1481 1480 1479 1478 1477 1477 1476 1476 1475 1475 1474 1474 1474 1473 1473 1473 1473 1473 1473 1473 1473 1473 1474 1475 1475 1476 1476 1477 1477 1477 1477 1477 1477
1475 1476 1477 1478 1479 1480 1480 1480 1480 1479 1479 1478 1477 1477 1476 1475 1475 1474 1474 1473 1473 1472 1472 1471 1471 1471 1470 1470 1470 1470 1470 1471 1471 1472 1472 1473 1473 1473 1474 1474 1474 1474 1474
1472 1473 1474 1475 1476 1476 1477 1477 1477 1477 1476 1476 1475 1475 1474 1474 1473 1473 1472 1472 1471 1471 1470 1469 1469 1468 1468 1468 1468 1468 1468 1468 1468 1469 1469 1470 1470 1471 1471 1471 1472 1472 1472
1469 1470 1471 1472 1472 1473 1473 1473 1473 1473 1473 1473 1472 1472 1472 1471 1471 1471 1470 1470 1469 1468 1468 1467 1466 1466 1466 1466 1465 1465 1466 1466 1466 1467 1467 1467 1468 1468 1469 1469 1469 1469 1470
1467 1467 1468 1469 1469 1469 1470 1470 1470 1470 1469 1469 1469 1469 1469 1469 1469 1468 1468 1467 1466 1466 1465 1465 1464 1464 1463 1463 1463 1463 1464 1464 1464 1465 1465 1465 1465 1466 1466 1466 1467 1467 1467
1464 1465 1465 1466 1466 1467 1467 1467 1467 1467 1466 1466 1466 1466 1466 1466 1466 1466 1465 1465 1464 1463 1463 1462 1462 1461 1461 1461 1461 1461 1461 1462 1462 1462 1463 1463 1463 1463 1463 1464 1464 1465 1465
1462 1463 1463 1463 1464 1464 1464 1464 1464 1464 1463 1463 1463 1463 1463 1463 1463 1463 1462 1462 1461 1461 1460 1460 1460 1459 1459 1459 1458 1458 1458 1459 1459 1459 1460 1460 1461 1461 1461 1461 1462 1462 1462
1460 1460 1461 1461 1461 1461 1461 1461 1461 1461 1461 1461 1461 1461 1460 1460 1460 1459 1459 1459 1459 1459 1458 1458 1457 1457 1456 1456 1456 1456 1456 1456 1456 1456 1457 1457 1458 1458 1458 1459 1459 1459 1460
1457 1458 1458 1458 1458 1458 1458 1458 1458 1458 1458 1458 1458 1458 1458 1457 1457 1457 1457 1457 1456 1456 1456 1456 1455 1455 1454 1453 1453 1453 1453 1453 1453 1454 1454 1455 1455 1455 1456 1456 1456 1456 1456
1455 1455 1455 1455 1456 1456 1456 1455 1455 1455 1455 1455 1455 1455 1455 1455 1455 1455 1455 1455 1454 1454 1454 1453 1453 1452 1452 1451 1451 1451 1451 1451 1451 1451 1451 1452 1452 1452 1452 1452 1453 1453 1453
1453 1453 1453 1452 1452 1452 1452 1452 1452 1452 1452 1452 1452 1452 1452 1452 1453 1453 1453 1452 1452 1452 1452 1451 1451 1450 1450 1449 1448 1448 1448 1448 1448 1448 1448 1449 1449 1449 1449 1449 1449 1450 1450
1450 1450 1450 1450 1449 1449 1449 1449 1449 1449 1449 1449 1449 1449 1450 1450 1450 1450 1450 1450 1450 1450 1449 1449 1448 1447 1447 1446 1446 1445 1445 1445 1445 1445 1445 1445 1445 1445 1445 1446 1446 1446 1447
1448 1448 1447 1447 1446 1446 1446 1445 1445 1445 1445 1445 1446 1446 1447 1447 1447 1447 1447 1447 1447 1447 1447 1446 1445 1445 1444 1443 1443 1442 1442 1442 1441 1441 1441 1441 1442 1442 1442 1442 1443 1443 1443